• Processing (Info)

  • MPEC 2019-U44 : 2019 UV

    The following Minor Planet Electronic Circular may be linked-to from your own Web pages, but must not otherwise be redistributed electronically.

    A form allowing access to any MPEC is at the bottom of this page.


    Read MPEC 2019-U43 Read MPEC 2019-U45


    M.P.E.C. 2019-U44                              Issued 2019 October 20, 06:44 UT
    
         The Minor Planet Electronic Circulars contain information on unusual
             minor planets and routine data on comets.  They are published
        on behalf of Division F of the International Astronomical Union by the
              Minor Planet Center, Smithsonian Astrophysical Observatory,
                              Cambridge, MA 02138, U.S.A.
    
                 Prepared using the Tamkin Foundation Computer Network
    
                                  MPC@CFA.HARVARD.EDU
                URL https://www.minorplanetcenter.net/    ISSN 1523-6714
    
                                     2019 UV                                 
    
    
    Observations:
         K19U00V* C2019 10 19.20895 00 09 51.08 +28 13 01.6          19.8 GVEU044G96
         K19U00V  C2019 10 19.21410 00 09 42.25 +28 14 19.5          19.9 GVEU044G96
         K19U00V  C2019 10 19.21925 00 09 33.32 +28 15 38.4          20.2 GVEU044G96
         K19U00V  C2019 10 19.22441 00 09 24.57 +28 16 55.2          20.4 GVEU044G96
         K19U00V  C2019 10 19.41311 00 04 08.51 +29 01 52.7          20.6 GVEU044I52
         K19U00V  C2019 10 19.41457 00 04 06.19 +29 02 13.1          20.3 GVEU044I52
         K19U00V  C2019 10 19.41603 00 04 03.78 +29 02 32.7          20.7 GVEU044I52
         K19U00V pC2019 10 19.82418623 53 53.35 +30 32 54.7          20.5 GVEU044L01
         K19U00V KC2019 10 19.82597223 53 50.56 +30 33 17.9          20.6 GVEU044L01
         K19U00V KC2019 10 19.82754723 53 48.10 +30 33 37.6          20.6 GVEU044L01
         K19U00V KC2019 10 19.82922223 53 45.54 +30 33 58.7          20.4 GVEU044L01
         K19U00V KC2019 10 19.83090123 53 42.94 +30 34 19.8          20.3 GVEU044L01
         K19U00V  C2019 10 20.16029 23 45 46.69 +31 39 55.4                VEU044I52
         K19U00V  C2019 10 20.16174 23 45 44.50 +31 40 12.5          20.4 GVEU044I52
         K19U00V  C2019 10 20.16319 23 45 42.34 +31 40 29.2          19.8 GVEU044I52
         K19U00V  C2019 10 20.16465 23 45 40.12 +31 40 45.0                VEU044I52
    
    Observer details:
    G96 Mt. Lemmon Survey.  Observer D. Rankin.  Measurers E. J. Christensen, G. A. 
       Farneth, D. C. Fuls, A. R. Gibbs, A. D. Grauer, H. Groeller, R. A. Kowalski, 
       S. M. Larson, G. J. Leonard, T. A. Pruyne, D. Rankin, R. L. Seaman, F. C. 
       Shelly, K. W. Wierzchos.  1.5-m reflector + 10K CCD.
    I52 Steward Observatory, Mt. Lemmon Station.  Observers T. A. Pruyne, H. 
       Groeller.  Measurers E. J. Christensen, G. A. Farneth, D. C. Fuls, A. R. 
       Gibbs, A. D. Grauer, H. Groeller, R. A. Kowalski, S. M. Larson, G. J. 
       Leonard, T. A. Pruyne, D. Rankin, R. L. Seaman, F. C. Shelly, K. W. 
       Wierzchos.  1.0-m reflector + CCD.
    L01 Visnjan Observatory, Tican.  Observer K. Korlevic.  1.0-m f/2.9 reflector + 
       CCD.
    
    Orbital elements:
    2019 UV                                                  Earth MOID = 0.0308 AU
    Epoch 2019 Apr. 27.0 TT = JDT 2458600.5                 Bell
    M 302.81551              (2000.0)            P               Q
    n   1.15470202     Peri.  207.85737     -0.65090698     +0.74449700
    a   0.8998209      Node    22.57790     -0.60461685     -0.39012088
    e   0.1709752      Incl.   22.74997     -0.45908449     -0.54178401
    P   0.85           H   26.1           G   0.15           U   7
    Residuals in seconds of arc
    191019 G96  0.4+  0.2-    191019 I52  0.5-  0.3-    191020 I52  0.4+  0.3-
    191019 G96  0.5+  0.2-    191019 L01  0.1+  0.4-    191020 I52  0.0   0.3+
    191019 G96  0.9-  1.0+    191019 L01  0.1-  0.3+    191020 I52  0.0   0.4+
    191019 G96  0.3+  0.1+    191019 L01  0.2-  0.1+    191020 I52  0.6-  0.4-
    191019 I52  0.4-  0.5-    191019 L01  0.3+  0.1+
    191019 I52  0.2+  0.0     191019 L01  0.4+  0.1+
    
    Ephemeris:
    2019 UV                  a,e,i = 0.90, 0.17, 23                  q = 0.7460
    Date    TT    R. A. (2000) Decl.     Delta      r    Elong.  Phase     V
    2019 09 20    07 10 21.6 -42 19 17   0.1714  0.9765    75.7    94.5    25.6
    ...
    2019 10 05    06 02 46.1 -37 58 23   0.07768 1.0097    94.8    80.8    23.4
    ...
    2019 10 13    03 37 51.0 -16 28 49   0.03550 1.0239   136.4    42.2    20.5
    ...
    2019 10 19    00 15 35.3 +27 19 05   0.04031 1.0328   154.7    24.4    20.3
    2019 10 20    23 49 32.5 +31 09 10   0.04497 1.0341   147.4    31.2    20.8
    2019 10 21    23 27 12.2 +33 58 05   0.05016 1.0354   141.5    36.7    21.2
    ...
    2019 10 27    22 08 37.8 +40 46 00   0.08658 1.0422   121.8    54.2    22.9
    ...
    2019 11 04    21 31 05.2 +42 38 07   0.1390  1.0488   110.5    62.3    24.1
    ...
    2019 11 19    21 14 27.8 +43 44 45   0.2349  1.0534    99.6    67.7    25.4
    
    A. U. Tomatic                (C) Copyright 2019 MPC           M.P.E.C. 2019-U44
    


    Read MPEC 2019-U43 Read MPEC 2019-U45


    MPEC number:

    Enter an MPEC number in one of the following forms:

    • 1997-B01 (the full form)
    • J97B01 (the packed version of the full form)
    • B01 (the abbreviated form)